Location: *
(41.7492°S, 135.4150°W)
Time: 22:23:43
(UTC+00:00)

METEOR M2 - Pass Details

Date: 08 July 2022
Orbit: 818 x 827 km, 98.4° (Epoch: 17 August)

Event Time Altitude Azimuth Distance (km) Brightness Sun altitude
Exits shadow 05:32:49 19° 248° (WSW) 1,894 ? -41.7°
Drops below altitude 10° 05:36:03 10° 285° (WNW) 2,434 ? -42.3°
Sets 05:39:01 0° 302° (WNW) 3,360 ? -42.8°
